ZBAA Airport Information

Runway Information
Runway 01 Length 12468 ft width 197 ft
Elevation 94 ft Threshold 0 ft Heading 353
Runway 19 Length 12468 ft Width 197 ft
Elevation 84 ft Threshold 0 ft Heading 173
Runway 18L Length 12468 ft width 197 ft
Elevation 110 ft Threshold 0 ft Heading 173
Runway 36R Length 12468 ft Width 197 ft
Elevation 99 ft Threshold 0 ft Heading 353
Runway 18R Length 10499 ft width 164 ft
Elevation 116 ft Threshold 0 ft Heading 173
Runway 36L Length 10499 ft Width 164 ft
Elevation 107 ft Threshold 0 ft Heading 353
Airport Frequencies
Type APP Name BEIJING AP Frequency 119.6 MHZ
Type APP Name BEIJING AP Frequency 119.7 MHZ
Type APP Name BEIJING AP Frequency 120.6 MHZ
Type APP Name BEIJING AP Frequency 121.1 MHZ
Type APP Name BEIJING AP Frequency 126.1 MHZ
Type APP Name BEIJING AP Frequency 127.75 MHZ
Type ATIS Name BEIJING AT Frequency 127.6 MHZ
Type CLD Name BEIJING DE Frequency 121.6 MHZ
Type GND Name GND EAST Frequency 121.7 MHZ
Type GND Name BEIJING GN Frequency 121.7 MHZ
Type GND Name GND WEST Frequency 121.9 MHZ
Type TWR Name BEIJING EA Frequency 118.5 MHZ
Type TWR Name BEIJING W Frequency 124.3 MHZ
Airport Navaids
Type VOR-DME Name Beijing Frequency 114700 KHZ
Type VOR-DME Name Shaziying Frequency 117200 KHZ
Airport Weather Information & NOTAM
ADDS - METARS form results

(0055 UTC 23 January 2019)
Data provider http://aviationweather.gov/metar/data/
 
METAR text: ZBAA 230030Z 02002MPS CAVOK M01/M15 Q1025 NOSIG
Conditions at: ZBAA (BEIJING/PEKING , CN) observed 0030 UTC 23 January 2019
Temperature: -1.0°C (30°F)
Dewpoint: -15.0°C ( 5°F) [RH = 34%]
Pressure (altimeter): 30.27 inches Hg (1025.0 mb)
Winds: from the NNE (20 degrees) at 5 MPH (4 knots; 2.1 m/s)
Visibility: 6 or more miles (10+ km)
Ceiling: ceiling and visibility are OK
Clouds: unknown
Weather: no significant weather observed at this time

METAR text: ZBAA 230000Z 33003MPS CAVOK M01/M15 Q1024 NOSIG
Conditions at: ZBAA (BEIJING/PEKING , CN) observed 0000 UTC 23 January 2019
Temperature: -1.0°C (30°F)
Dewpoint: -15.0°C ( 5°F) [RH = 34%]
Pressure (altimeter): 30.24 inches Hg (1024.0 mb)
Winds: from the NNW (330 degrees) at 7 MPH (6 knots; 3.1 m/s)
Visibility: 6 or more miles (10+ km)
Ceiling: ceiling and visibility are OK
Clouds: unknown
Weather: no significant weather observed at this time

Forecast for: ZBAA (BEIJING/PEKING , CN)
Text: TAF ZBAA 222120Z 2300/2324 34004MPS CAVOK TX08/2307Z TNM06/21Z
Forecast period: 0000 UTC 23 January 2019 to 0000 UTC 24 January 2019
Forecast type: FROM: standard forecast or significant change
Winds: from the NNW (340 degrees) at 9 MPH (8 knots; 4.1 m/s)
Visibility: 6 or more miles 10+ km)
Ceiling: unknown
Clouds: missing
Weather: no significant weather forecast for this period